Temperature
12 12 12 12 12 12 12 13 13 13 13 13 13 14 14 14 14 14 14 14 15 15 15 15 15 15 15 15 15 15 15 14 14 15 15 15 14 15 15 15 15 15 15
12 12 12 12 12 12 12 12 12 13 13 13 13 13 13 13 13 14 14 14 14 14 14 14 14 14 14 14 14 14 14 14 14 14 14 14 14 14 14 14 14 14 14
12 12 12 11 11 12 12 12 12 12 12 13 13 13 13 13 13 13 13 14 14 14 14 14 14 14 14 14 14 14 14 14 14 14 14 14 14 14 14 14 14 14 14
12 11 11 11 11 11 11 12 12 12 12 12 12 13 13 13 13 13 13 13 13 14 14 14 14 14 14 14 14 14 14 14 14 13 14 13 13 13 13 13 14 14 13
12 11 11 11 11 11 11 11 11 11 11 11 12 12 12 13 13 13 13 13 13 13 13 13 13 13 14 14 14 14 13 13 13 13 13 13 13 13 13 13 13 13 13
12 11 11 11 11 11 11 11 11 11 11 11 11 12 12 12 12 12 12 12 13 13 13 13 13 13 13 13 13 13 13 13 13 13 13 13 13 13 13 13 13 13 13
11 11 11 11 11 10 10 10 10 10 10 11 11 11 11 12 12 12 12 12 12 12 12 12 12 12 13 13 13 13 13 13 13 13 13 13 13 13 13 13 13 13 13
11 11 11 11 10 10 10 10 10 10 10 10 10 10 11 11 11 12 12 11 11 11 12 12 12 12 12 13 13 13 13 13 13 13 13 13 13 13 13 13 13 13 12
11 11 11 11 10 10 10 10 10 10 10 10 10 10 10 11 11 11 11 11 11 11 11 12 12 12 12 12 13 13 13 13 13 13 13 13 13 13 13 13 13 13 12
11 11 11 11 10 10 10 10 10 10 10 10 10 10 10 10 10 11 11 11 11 11 11 11 12 12 12 12 12 12 12 12 12 12 13 13 12 12 12 13 13 12 12
11 11 11 11 10 10 10 10 10 10 10 10 10 10 10 10 10 10 11 11 11 11 11 11 11 12 12 12 12 12 12 12 12 12 12 12 12 12 12 12 12 12 12
11 11 11 11 11 10 10 10 10 10 10 10 10 9 10 10 10 10 10 10 10 11 11 11 11 12 12 12 12 12 12 12 12 12 11 11 12 12 12 12 12 12 12
11 11 11 11 11 10 10 10 10 10 9 9 9 9 9 10 10 10 10 10 10 10 11 11 11 11 12 12 12 12 12 11 11 11 11 11 11 11 11 11 11 11 11
12 12 12 11 11 11 10 10 10 10 10 10 10 10 9 10 10 10 10 10 10 10 10 11 11 11 11 11 11 11 11 11 11 11 11 11 11 11 11 11 11 11 11
13 13 12 12 11 11 11 10 10 10 10 10 10 10 11 11 11 11 11 11 10 10 10 10 10 10 11 11 11 11 11 11 11 11 11 10 10 10 10 10 10 10 10
14 13 13 12 12 11 11 11 11 10 10 11 11 11 11 11 11 11 11 11 10 10 10 10 10 10 10 10 10 10 10 10 10 10 10 10 10 10 10 10 10 10 10
13 13 13 12 12 12 11 11 11 11 11 11 11 11 11 11 11 11 11 11 10 10 10 10 10 10 10 10 10 10 10 10 10 10 10 10 10 9 9 9 9 9 9
13 13 13 13 12 12 12 12 11 11 11 11 11 11 11 11 11 11 11 11 10 10 10 10 10 10 10 10 10 10 10 10 10 9 9 9 9 9 9 9 9 9 9
14 13 13 13 12 12 12 12 12 12 12 11 11 11 11 11 11 11 11 11 10 10 10 10 10 10 10 10 10 9 9 9 9 9 9 9 9 9 9 9 9 9 9
14 14 13 13 13 12 12 12 12 12 12 12 11 11 11 11 11 11 11 11 11 11 11 10 10 10 10 10 10 9 9 9 9 9 9 9 9 9 9 8 8 8 8
14 14 14 13 13 13 13 13 13 13 12 12 12 12 12 11 11 11 11 11 11 11 11 11 11 11 11 10 10 9 9 9 9 9 9 9 9 9 8 8 8 8 8
14 14 14 14 13 13 13 13 13 13 13 13 12 12 12 12 12 11 11 11 11 11 11 11 11 11 11 11 10 10 9 9 9 9 8 8 8 8 8 8 8 8 8
15 14 14 14 13 13 13 13 13 13 13 13 13 12 12 12 12 12 11 11 12 12 12 12 12 12 12 11 11 11 10 9 9 9 9 8 8 8 8 8 8 8 8
15 14 14 13 13 13 13 13 13 13 13 13 13 13 13 12 12 12 12 12 12 12 12 12 12 12 12 12 12 11 11 11 10 10 9 9 8 8 8 8 8 8 7
15 14 14 14 13 13 13 13 13 13 13 13 13 13 13 13 12 12 12 12 12 12 12 12 12 12 12 12 12 12 12 12 11 11 11 10 9 9 8 8 8 8 7
15 14 14 14 13 13 13 13 13 13 13 13 13 13 13 13 13 12 12 12 13 13 12 12 12 12 12 12 12 12 12 12 12 11 11 11 10 10 9 9 8 8 8
Wind_Speed
8 8 9 9 9 9 9 9 8 8 9 8 7 6 6 6 5 4 2 1 1 2 3 4 4 4 4 4 4 4 4 4 4 2 2 2 3 2 1 3 4 6 8
7 8 8 8 9 9 9 9 9 9 9 9 8 8 8 7 6 5 3 3 2 2 2 3 3 3 4 4 4 4 4 4 4 3 1 2 2 2 2 2 2 4 6
7 8 8 9 9 10 10 10 10 10 10 10 9 9 9 9 8 7 6 5 4 2 2 2 3 4 3 3 3 4 3 3 3 3 2 2 1 2 1 1 1 2 5
7 8 8 9 9 9 9 10 10 10 10 10 10 10 9 10 10 9 7 5 4 4 3 3 3 3 3 3 4 4 4 4 4 4 3 2 2 1 2 2 2 2 3
7 8 8 8 8 8 9 9 9 10 11 10 10 10 9 9 10 10 8 6 5 5 5 5 5 5 4 3 4 4 4 4 4 3 3 2 2 2 2 2 3 3 4
7 7 7 8 8 8 8 8 9 9 9 9 9 9 10 10 13 14 10 6 5 5 5 4 5 6 6 7 7 6 5 4 4 3 3 3 3 3 2 3 4 4 3
7 7 7 8 8 8 9 8 8 8 8 8 9 8 9 11 16 15 14 6 5 6 5 5 5 6 6 5 7 9 8 6 4 3 4 4 4 3 3 4 4 4 4
6 6 7 7 7 7 7 7 7 6 7 7 7 8 8 12 17 16 13 6 6 7 7 6 6 6 6 5 6 8 8 8 6 5 6 5 4 3 3 4 6 6 6
6 6 7 7 7 7 7 6 5 5 5 6 6 7 8 10 16 16 13 5 5 7 7 8 7 6 8 8 6 7 7 6 10 13 12 11 11 9 6 5 5 6 5
6 6 6 5 6 7 7 6 4 4 4 4 5 6 7 8 14 17 14 6 6 5 6 7 10 8 8 7 5 6 7 5 5 6 6 6 7 8 9 5 4 6 5
5 5 5 5 5 5 5 5 5 5 5 4 5 5 6 8 11 15 14 7 5 5 5 6 6 9 8 7 5 5 5 4 4 5 5 6 6 5 6 7 6 5 5
3 3 3 4 5 5 4 5 5 5 5 5 5 5 5 6 9 11 13 11 8 6 5 4 5 7 8 8 6 6 7 6 4 5 6 6 6 5 5 6 11 11 9
2 1 0 2 3 4 5 5 5 6 6 5 5 5 5 6 8 13 11 9 9 5 4 5 5 6 6 6 8 9 7 5 5 6 6 5 4 5 5 5 8 11 13
3 2 0 3 4 4 4 5 5 5 6 6 6 6 5 6 7 8 7 6 6 5 3 3 5 6 5 5 5 6 5 5 5 5 5 4 4 4 4 4 4 5 6
4 4 3 3 2 2 3 3 4 4 3 3 4 5 5 5 6 8 6 5 5 5 3 1 3 3 4 5 5 5 4 5 5 4 4 4 4 4 3 3 4 5 5
2 2 2 3 2 1 3 3 3 3 4 4 3 4 3 4 5 8 9 10 10 9 5 4 4 4 4 4 4 4 4 4 4 4 4 4 3 4 3 3 3 5 5
3 2 3 1 1 2 2 3 3 2 1 1 0 2 3 3 5 7 8 10 9 7 4 4 4 4 4 4 4 4 3 3 3 4 4 3 3 3 3 3 3 4 4
4 2 2 2 2 2 1 1 1 3 4 4 4 5 3 2 4 6 7 6 3 2 3 4 3 3 3 3 3 3 3 3 3 3 3 3 3 3 3 3 3 3 4
5 3 3 2 3 3 3 3 3 3 3 4 4 4 6 5 5 6 6 2 1 2 3 3 3 2 2 3 3 2 3 3 2 3 3 3 2 2 2 4 4 4 2
3 3 3 2 3 4 4 4 3 3 3 3 4 5 4 4 3 3 2 1 1 2 2 2 2 2 2 2 1 1 1 2 1 2 2 2 2 2 2 3 3 3 2
5 6 8 4 4 5 4 4 4 4 3 3 3 5 7 3 3 3 3 3 2 2 2 3 3 2 1 0 0 1 1 1 2 2 3 2 1 1 1 1 2 2 3
5 5 6 6 6 6 5 4 4 4 4 4 4 5 8 4 4 3 4 5 4 3 3 3 3 4 3 2 1 1 1 1 2 1 2 3 2 1 1 1 1 2 3
5 5 5 6 6 7 5 4 4 5 5 5 5 6 6 6 6 5 5 5 5 5 4 4 3 3 5 5 3 1 1 1 2 2 1 2 2 2 2 2 2 2 2
6 6 6 5 5 5 6 6 6 6 6 5 5 5 7 7 7 7 6 6 6 5 7 7 6 6 8 8 7 6 4 1 3 2 1 0 1 2 2 2 2 3 3
7 7 6 6 6 5 6 6 6 6 6 6 5 5 5 6 7 6 6 6 7 7 7 9 9 9 10 11 11 9 8 7 4 2 1 1 2 2 2 2 3 3 3
7 7 6 5 5 5 5 5 5 6 5 5 5 5 5 5 6 6 6 7 7 7 6 8 12 14 13 13 15 15 14 12 10 8 4 2 3 3 3 3 4 3 4
Wind_Direction
16 17 22 22 23 22 22 18 16 18 23 28 34 40 45 47 50 58 49 78 140 156 171 175 181 181 182 183 178 180 182 177 187 185 156 162 166 158 179 220 188 178 184
17 19 25 25 25 26 23 20 20 25 25 27 30 37 40 43 47 50 42 45 77 119 150 147 157 156 164 171 175 180 181 179 170 170 157 156 165 175 186 206 185 175 165
23 20 26 29 26 25 23 21 24 27 28 29 33 34 34 33 33 31 31 34 45 51 86 124 137 140 150 159 159 159 159 152 134 139 148 159 162 171 163 177 146 120 142
31 28 29 32 30 28 25 24 26 26 29 29 34 36 32 32 26 18 17 28 48 47 55 84 103 124 142 153 148 148 147 140 137 141 148 155 159 170 150 154 148 118 116
38 35 30 32 32 28 29 29 29 29 31 32 34 34 31 32 22 14 4 18 44 52 52 70 83 90 98 113 127 139 145 145 149 151 150 149 160 147 163 162 144 114 82
43 40 33 34 31 28 28 29 33 32 29 30 34 34 34 28 16 18 10 8 36 54 52 59 86 84 87 92 108 113 125 140 145 145 152 154 155 140 135 135 134 128 102
41 44 39 36 33 28 27 28 32 33 28 29 30 30 33 23 17 15 7 6 48 52 51 53 64 70 69 81 94 93 83 77 99 135 136 139 133 130 129 120 119 113 112
35 42 47 40 32 26 27 31 28 29 30 30 29 29 30 26 19 14 6 24 60 61 53 47 58 61 55 62 90 84 71 53 54 79 92 85 85 88 107 122 120 106 96
38 41 48 42 30 22 24 29 26 23 29 32 29 30 31 26 20 18 11 28 56 66 64 53 50 53 50 58 88 95 88 77 73 83 89 91 83 73 80 99 111 120 114
43 43 48 50 43 26 16 17 22 21 27 41 39 39 39 33 28 27 23 30 42 53 62 61 50 48 49 57 84 102 100 98 103 99 89 91 81 68 71 92 121 128 125
53 43 37 38 60 47 12 11 23 21 20 36 50 53 50 40 32 32 33 35 30 46 52 52 40 40 49 53 71 90 107 113 104 100 94 82 71 62 55 61 73 105 113
78 57 56 49 41 47 24 19 19 12 15 25 36 43 49 46 35 25 31 38 37 49 48 44 38 39 52 60 62 64 79 82 83 81 80 77 72 61 59 64 70 72 77
121 88 88 107 88 53 29 28 26 18 16 21 23 31 42 39 25 17 18 28 35 51 61 55 47 47 60 61 54 58 70 79 86 90 85 79 78 78 70 67 65 69 65
169 183 166 68 74 71 49 37 45 29 16 14 16 17 27 41 22 8 1 12 25 41 52 53 46 50 61 62 54 56 63 79 93 95 97 90 76 71 76 87 93 88 75
194 183 164 115 82 92 98 62 64 82 70 33 11 10 20 22 6 1 6 6 2 7 355 45 52 48 50 54 57 57 61 70 80 87 96 99 93 86 75 71 89 95 98
237 152 139 143 149 172 150 133 65 101 127 94 59 37 65 44 3 3 3 1 2 4 27 62 61 58 55 58 63 61 57 65 77 87 91 98 107 110 104 85 88 102 111
271 168 152 153 168 220 196 172 171 175 199 248 221 69 65 16 0 355 353 347 341 356 51 67 66 63 58 59 66 71 67 62 70 83 89 90 95 102 102 98 95 101 108
259 166 161 182 217 249 238 227 187 174 186 200 216 217 212 263 317 326 334 336 348 40 63 70 71 64 59 62 68 77 77 67 66 77 80 82 87 95 102 105 98 100 119
238 195 183 204 208 233 234 232 225 217 195 168 159 190 221 231 270 296 323 333 62 84 80 72 71 73 68 65 58 64 85 84 80 86 85 78 76 91 98 106 107 99 102
232 182 175 216 242 233 222 225 227 222 218 185 167 165 182 204 220 218 218 255 76 115 117 115 94 72 72 73 55 23 99 112 105 105 108 94 75 80 104 120 138 155 152
219 193 190 211 246 257 240 227 221 212 216 199 167 157 165 205 227 178 177 180 181 170 160 148 145 145 125 99 251 266 254 149 138 131 137 130 113 106 108 120 134 130 125
224 204 188 204 223 238 242 240 235 224 219 203 172 169 179 201 241 221 191 182 180 176 166 166 180 172 165 187 244 262 244 190 159 153 146 143 142 166 163 149 141 137 140
226 242 223 210 214 221 221 238 251 242 232 221 194 174 182 206 221 220 204 186 175 174 176 177 193 182 181 197 213 225 275 234 160 131 135 158 178 200 193 189 182 176 178
214 229 235 234 227 220 214 218 231 232 226 223 216 197 189 198 206 208 201 186 177 177 182 187 202 207 195 190 198 212 225 203 95 93 85 249 225 221 197 183 193 209 177
208 221 225 225 232 230 224 226 232 236 227 217 216 214 206 198 198 200 193 185 181 185 189 192 200 213 213 198 196 200 196 186 170 130 55 310 268 249 227 211 208 213 197
204 216 222 221 225 233 234 233 236 240 237 225 216 213 210 207 203 200 192 186 186 190 192 197 202 205 212 215 211 203 194 191 196 202 208 275 272 241 216 225 233 221 213
Height
1516 1514 1511 1508 1506 1504 1502 1500 1499 1498 1496 1495 1495 1494 1494 1495 1495 1496 1498 1499 1500 1501 1503 1505 1507 1510 1511 1513 1516 1518 1521 1524 1526 1529 1530 1533 1535 1536 1538 1539 1541 1543 1544
1520 1517 1514 1512 1509 1507 1505 1504 1502 1500 1499 1497 1497 1496 1496 1496 1496 1496 1497 1498 1499 1500 1502 1503 1505 1507 1508 1510 1512 1514 1517 1519 1522 1524 1527 1529 1531 1533 1535 1536 1538 1539 1541
1523 1520 1518 1515 1512 1510 1508 1506 1505 1503 1501 1500 1499 1498 1498 1497 1497 1497 1498 1498 1498 1499 1501 1502 1503 1505 1506 1508 1510 1512 1514 1516 1518 1521 1524 1526 1529 1531 1533 1534 1536 1537 1539
1526 1523 1521 1518 1516 1513 1511 1509 1507 1505 1504 1502 1501 1500 1500 1499 1499 1499 1499 1498 1498 1499 1500 1501 1502 1504 1505 1507 1509 1510 1512 1514 1516 1519 1522 1524 1527 1529 1531 1532 1534 1536 1537
1529 1526 1523 1521 1518 1516 1514 1512 1510 1508 1506 1505 1503 1502 1501 1500 1500 1500 1499 1499 1499 1499 1499 1500 1502 1503 1504 1506 1508 1509 1511 1513 1515 1518 1520 1523 1525 1527 1529 1531 1533 1535 1537
1531 1528 1526 1523 1521 1518 1516 1514 1512 1510 1508 1507 1505 1504 1503 1502 1501 1500 1500 1500 1500 1500 1500 1500 1502 1502 1504 1506 1507 1509 1511 1513 1515 1517 1519 1522 1524 1526 1528 1530 1532 1534 1536
1533 1531 1528 1526 1523 1521 1518 1516 1514 1512 1511 1509 1507 1506 1504 1503 1502 1501 1501 1501 1500 1501 1501 1501 1502 1503 1505 1506 1507 1509 1511 1513 1515 1517 1519 1521 1523 1525 1527 1529 1531 1533 1535
1535 1533 1530 1528 1525 1523 1521 1519 1517 1515 1513 1511 1510 1508 1506 1505 1504 1503 1502 1502 1502 1502 1502 1503 1503 1504 1506 1507 1508 1510 1511 1513 1515 1517 1519 1521 1523 1525 1526 1528 1530 1532 1535
1537 1535 1533 1530 1528 1525 1523 1521 1519 1518 1516 1514 1512 1511 1509 1507 1505 1504 1504 1504 1504 1504 1504 1504 1505 1506 1507 1508 1510 1511 1513 1515 1517 1519 1521 1522 1524 1525 1527 1528 1530 1532 1534
1538 1536 1534 1532 1530 1528 1526 1524 1522 1520 1519 1517 1515 1513 1511 1509 1508 1506 1506 1505 1505 1505 1506 1506 1507 1508 1509 1510 1512 1513 1515 1517 1519 1521 1522 1524 1525 1527 1528 1529 1530 1532 1534
1539 1538 1536 1534 1532 1530 1528 1526 1524 1523 1521 1520 1518 1516 1514 1512 1510 1509 1508 1507 1507 1507 1508 1508 1509 1509 1511 1512 1514 1516 1517 1519 1521 1522 1524 1525 1527 1528 1529 1530 1531 1533 1534
1540 1539 1538 1536 1534 1532 1530 1528 1527 1525 1523 1522 1520 1518 1516 1515 1513 1512 1511 1510 1510 1510 1510 1510 1511 1512 1513 1515 1516 1518 1519 1521 1523 1524 1526 1527 1528 1529 1530 1531 1532 1533 1534
1541 1540 1539 1538 1536 1534 1532 1530 1528 1526 1525 1524 1522 1521 1519 1517 1516 1515 1514 1513 1513 1512 1513 1513 1514 1515 1516 1517 1519 1520 1521 1523 1524 1526 1527 1528 1529 1530 1531 1532 1533 1534 1535
1542 1541 1540 1539 1538 1536 1534 1532 1530 1528 1526 1525 1523 1522 1521 1519 1518 1517 1516 1516 1515 1516 1516 1516 1517 1518 1519 1520 1521 1522 1523 1524 1526 1527 1528 1529 1531 1532 1532 1533 1534 1535 1535
1542 1541 1541 1540 1538 1537 1536 1534 1532 1530 1528 1527 1525 1524 1523 1521 1520 1519 1519 1518 1518 1518 1518 1519 1520 1520 1521 1522 1523 1524 1525 1526 1527 1528 1529 1530 1531 1533 1534 1535 1535 1536 1536
1543 1542 1541 1540 1539 1538 1536 1535 1534 1532 1530 1528 1527 1526 1524 1524 1523 1522 1521 1521 1521 1521 1521 1521 1522 1522 1523 1524 1524 1525 1526 1527 1528 1529 1531 1532 1532 1533 1534 1535 1536 1537 1537
1542 1541 1540 1540 1539 1538 1537 1536 1535 1534 1532 1531 1529 1528 1526 1525 1525 1524 1524 1523 1523 1523 1523 1523 1524 1524 1525 1525 1526 1527 1527 1528 1529 1530 1531 1532 1533 1534 1535 1536 1537 1537 1538
1540 1540 1539 1538 1538 1538 1537 1536 1535 1534 1533 1532 1531 1529 1528 1527 1526 1526 1525 1525 1525 1525 1525 1525 1525 1525 1526 1526 1527 1528 1528 1529 1530 1531 1532 1533 1534 1535 1535 1536 1537 1537 1538
1538 1538 1537 1537 1537 1536 1536 1536 1535 1534 1533 1532 1531 1530 1529 1528 1528 1527 1527 1526 1526 1526 1526 1526 1526 1526 1526 1527 1527 1528 1529 1529 1530 1531 1532 1533 1533 1534 1535 1536 1536 1537 1537
1535 1535 1535 1535 1535 1535 1535 1535 1534 1534 1533 1532 1531 1530 1530 1529 1528 1527 1527 1526 1526 1526 1526 1526 1526 1526 1526 1527 1527 1528 1529 1529 1530 1531 1531 1532 1533 1533 1534 1535 1535 1536 1536
1532 1532 1532 1532 1532 1532 1533 1533 1533 1533 1532 1532 1531 1530 1529 1528 1527 1527 1526 1526 1526 1525 1525 1525 1525 1525 1525 1525 1526 1527 1528 1528 1529 1530 1530 1531 1531 1532 1533 1534 1534 1535 1535
1528 1529 1529 1529 1529 1529 1530 1530 1531 1531 1530 1530 1529 1528 1528 1527 1526 1526 1525 1525 1525 1524 1524 1524 1524 1524 1524 1524 1524 1525 1526 1527 1527 1528 1528 1529 1529 1530 1531 1532 1533 1533 1534
1524 1525 1525 1525 1526 1526 1527 1527 1527 1527 1528 1528 1527 1526 1526 1525 1525 1524 1524 1523 1523 1523 1522 1522 1522 1522 1522 1522 1523 1523 1524 1524 1525 1525 1526 1527 1528 1528 1529 1530 1531 1531 1532
1519 1519 1520 1521 1522 1522 1522 1523 1523 1524 1524 1524 1524 1524 1523 1523 1522 1522 1522 1521 1521 1521 1520 1520 1520 1520 1520 1520 1520 1521 1521 1522 1522 1523 1523 1524 1525 1526 1527 1527 1528 1529 1529
1513 1514 1515 1516 1516 1517 1518 1518 1519 1519 1520 1520 1521 1521 1520 1520 1520 1519 1519 1519 1518 1518 1518 1518 1518 1517 1517 1518 1518 1518 1519 1519 1519 1520 1520 1521 1522 1523 1523 1524 1525 1526 1526
1507 1508 1509 1510 1511 1512 1512 1513 1514 1515 1515 1516 1516 1516 1517 1517 1516 1516 1516 1516 1515 1515 1515 1515 1515 1515 1515 1515 1515 1515 1516 1516 1516 1517 1517 1518 1519 1519 1520 1521 1521 1522 1523